SCP
-0 -0 -0 -0 -0 0 0 -0 -0 -0 -0 -0 0 0 0 -0 -0 -0 -0 -0 -0 -0 -0 -0 -0 -0 -0 -0 -0 0 0 0 0 0 -0 -0 -0 -0 -0 0 0 0 0
-0 -0 -0 -0 -0 -0 0 0 0 0 0 0 0 0 0 0 0 0 0 0 0 0 -0 -0 -0 -0 -0 -0 -0 -0 -0 0 0 0 0 -0 -0 -0 -0 0 0 0 0
-0 -0 -0 -0 -0 -0 0 0 0 0 0 0 0 0 0 0 0 0 0 0 0 0 0 0 -0 -0 -0 -0 -0 -0 -0 -0 0 0 0 -0 0 -0 0 0 0 0 0
-0 -0 -0 -0 -0 0 0 0 0 0 0 0 0 0 0 0 0 0 0 0 0 0 0 0 0 0 0 0 0 0 0 -0 -0 0 0 0 0 0 0 0 0 0 0
-0 -0 -0 -0 -0 0 0 0 0 0 0 0 0 0 0 0 0 0 0 0 0 0 0 0 0 0 0 0 0 0 0 0 0 -0 0 0 0 0 0 0 0 0 0
-0 -0 -1 -0 -0 -0 0 0 0 0 0 0 0 0 0 0 0 0 0 0 0 0 0 0 0 0 0 0 0 0 0 0 0 0 0 0 0 0 0 0 0 0 0
-0 -0 -0 -0 0 0 0 0 0 1 0 0 0 0 0 0 0 0 0 0 0 0 0 0 0 0 0 0 0 -0 0 0 0 0 0 0 0 0 0 0 0 0 0
-0 -0 -0 0 0 0 1 1 1 1 1 1 0 1 0 0 0 0 0 0 0 0 0 0 0 0 0 0 0 0 0 -0 0 0 0 0 0 0 0 0 0 0 0
0 -0 0 0 1 1 1 1 1 1 1 1 1 0 1 0 0 0 0 0 -0 0 0 0 0 0 0 0 0 0 -0 -0 0 0 0 0 0 0 0 0 0 0 0
0 0 0 0 0 0 0 1 2 0 1 1 1 1 0 1 0 0 0 0 0 -0 0 1 1 0 0 0 0 -0 -0 -0 0 0 0 0 0 0 0 0 0 0 0
-0 -0 0 0 1 1 1 1 1 1 1 1 1 0 0 0 0 0 0 0 0 0 -0 1 1 0 0 0 0 -0 -0 -0 -0 0 0 0 0 0 0 0 0 0 0
0 0 1 1 0 0 1 1 1 1 1 0 0 0 0 0 0 0 0 0 0 0 0 0 0 0 0 0 0 -0 -0 0 0 0 0 0 0 0 -0 0 0 0 0
0 1 1 1 1 0 0 0 1 1 1 1 0 0 0 0 0 0 1 1 1 1 0 0 1 0 0 0 0 0 0 0 0 0 0 0 0 0 -0 -0 0 0 0
1 1 1 1 1 1 0 0 1 1 1 0 1 0 1 1 1 1 1 1 0 1 0 0 0 0 0 0 0 0 0 0 0 0 0 0 0 0 -0 -0 0 0 0
0 0 0 0 1 0 1 1 1 0 1 1 1 0 -0 1 1 1 1 1 0 1 0 0 0 0 -0 0 0 -0 0 0 0 0 0 0 0 0 0 -0 -0 0 0
0 0 1 0 1 1 1 0 0 1 1 1 0 0 0 0 1 0 1 0 -0 0 0 0 0 0 0 0 0 0 0 0 0 0 0 0 0 0 0 0 -0 -0 -0
0 0 0 0 1 1 1 1 1 0 0 1 -0 0 0 1 0 1 1 1 0 1 0 1 1 1 0 0 0 0 0 0 0 -0 0 0 0 0 0 0 -0 -0 -0
0 0 0 0 0 0 1 1 1 0 -0 1 1 1 1 0 0 1 0 1 1 1 1 1 1 0 0 0 0 0 0 0 0 0 0 0 0 0 0 0 -0 0 0
0 0 0 0 0 0 1 1 0 1 1 1 0 0 0 0 0 0 1 1 0 1 1 0 0 0 0 0 1 0 1 1 1 0 0 0 0 0 0 0 1 0 0
0 0 0 0 0 0 0 0 0 0 0 0 0 0 0 0 0 0 0 0 0 0 1 1 0 1 1 1 1 0 0 1 1 0 0 0 0 0 0 0 0 0 0
0 0 0 0 0 0 0 0 0 0 0 0 0 0 0 0 0 0 0 0 0 0 0 0 0 0 0 0 0 0 0 0 0 0 0 0 0 0 0 0 0 0 0
0 0 0 0 0 0 0 0 0 0 0 0 0 0 0 0 -0 0 0 0 0 0 0 0 0 0 0 0 0 0 0 0 0 0 0 0 0 0 0 0 0 0 0
0 0 0 0 0 0 0 0 0 0 0 0 0 0 0 0 0 0 0 0 0 0 0 0 0 0 0 0 0 0 0 0 0 0 0 0 0 0 0 0 0 0 0
0 0 0 0 0 0 0 0 0 0 0 0 0 0 0 0 0 0 0 0 0 0 0 0 0 0 0 0 -0 0 0 0 0 0 0 0 0 0 0 0 0 0 0
0 0 0 0 0 0 0 0 0 0 0 0 0 0 0 0 0 -0 0 0 -0 -0 -0 -0 0 0 0 0 0 0 0 0 0 0 0 0 0 0 0 0 0 0 0
0 0 0 0 0 0 0 0 0 0 0 0 0 0 0 0 0 -0 0 0 0 0 0 0 -0 0 0 0 0 0 0 0 0 0 0 0 0 0 0 0 0 0 0
Wind_Speed_500mb
13 19 19 17 16 16 14 13 13 13 13 12 11 12 11 10 10 11 13 16 19 23 26 28 30 32 33 34 33 31 27 24 18 16 14 16 21 20 21 13 12 5 9
17 18 19 16 15 15 14 13 12 11 9 9 8 9 9 7 6 6 8 11 15 18 20 23 25 27 31 34 38 40 36 27 21 21 15 12 14 18 17 14 11 5 4
13 20 18 14 13 13 13 12 11 8 7 7 7 8 7 4 2 2 3 5 8 11 13 16 20 23 27 32 35 38 37 28 24 19 17 13 6 10 13 13 10 10 5
11 19 18 13 11 10 10 9 7 5 5 6 8 10 11 9 8 6 5 3 3 4 8 11 14 18 22 27 32 35 34 20 24 24 32 24 8 7 11 12 7 6 7
18 18 19 13 10 10 9 9 8 6 7 10 12 14 15 15 14 12 11 11 9 8 10 13 15 16 19 24 31 36 35 17 16 18 21 11 5 15 15 9 6 4 6
26 28 12 12 11 10 9 8 8 9 11 13 13 16 19 21 21 19 18 17 15 15 14 15 17 18 19 22 27 33 33 29 15 43 5 7 10 21 19 9 6 6 7
26 15 6 11 9 9 10 11 13 14 16 16 17 19 21 24 25 22 22 23 23 23 22 21 21 21 21 22 23 28 29 27 18 19 17 11 13 19 13 10 12 12 11
16 11 5 6 6 12 17 18 18 20 19 20 22 25 24 24 24 26 28 28 29 32 30 28 26 23 21 23 24 26 27 27 13 14 14 8 14 24 20 13 10 13 13
15 7 10 9 16 18 18 20 17 27 26 26 23 26 28 23 24 23 28 29 31 40 41 38 35 31 25 24 25 27 25 15 11 11 10 17 23 27 19 19 18 15 13
8 14 4 5 13 18 18 16 21 33 35 28 21 26 28 22 23 30 28 34 30 35 42 44 40 38 32 27 27 21 18 3 12 10 14 22 23 25 22 19 20 21 19
6 21 17 17 16 24 22 20 28 16 23 17 23 31 29 29 25 27 26 46 32 36 40 48 44 37 35 34 35 10 6 5 9 16 19 26 27 23 27 26 23 24 27
13 38 24 13 13 13 25 27 26 28 38 39 37 38 44 28 31 40 29 29 36 41 31 41 37 36 37 35 26 18 11 9 17 15 24 24 26 30 31 28 27 24 25
13 27 20 20 16 15 14 17 20 32 35 31 24 29 17 22 36 39 26 20 39 26 30 30 30 37 27 25 22 22 24 29 17 19 29 26 30 34 36 30 29 27 27
25 26 24 20 26 32 26 17 17 24 34 32 26 17 20 32 41 37 28 35 20 36 34 31 14 17 20 16 15 36 44 34 29 25 27 32 35 38 41 40 34 30 28
35 34 33 33 31 27 30 25 21 22 32 40 47 42 28 30 40 38 36 31 34 24 41 38 22 24 33 42 38 33 43 30 38 35 33 32 35 35 45 44 41 28 30
36 34 35 29 33 29 25 26 26 29 27 33 32 31 29 45 35 34 30 32 29 27 37 29 36 15 23 27 20 40 47 37 39 32 26 33 36 39 44 44 38 47 53
32 32 27 28 27 32 35 37 37 40 30 42 47 42 35 37 41 38 30 24 30 38 43 42 42 39 42 46 42 51 50 38 51 56 63 42 48 38 41 35 43 44 48
37 43 40 30 30 30 36 33 36 43 47 21 23 14 25 26 29 30 36 31 23 30 39 40 27 39 49 40 49 39 64 63 61 52 33 39 39 37 39 43 50 57 49
31 26 28 29 34 27 37 27 30 36 43 38 34 39 46 37 40 39 35 36 35 33 32 36 31 33 42 41 39 33 28 30 31 35 35 31 41 45 44 52 43 35 33
30 34 35 44 45 25 37 27 24 35 46 47 39 45 43 43 47 46 33 30 32 30 38 43 37 30 29 32 40 32 27 35 36 37 33 39 39 24 27 35 38 28 28
31 34 40 39 51 37 48 40 37 39 38 46 44 46 45 48 44 39 43 38 42 36 33 34 28 24 28 24 32 24 24 25 30 39 34 37 31 30 35 34 44 40 46
26 32 41 45 50 51 42 42 33 33 30 27 36 47 50 48 48 38 36 38 43 29 30 33 37 39 28 24 29 29 20 27 21 10 8 17 25 29 40 39 35 41 44
28 35 38 41 44 51 54 49 46 35 34 40 37 44 37 35 33 39 45 42 35 29 30 39 35 30 33 26 19 18 12 8 31 16 23 25 28 30 35 35 41 39 39
29 32 33 37 43 46 56 56 49 40 41 40 36 37 40 34 27 32 43 42 36 34 37 35 27 28 28 25 21 16 23 28 17 25 23 19 31 26 27 32 32 30 36
26 30 30 33 33 41 48 53 52 41 37 36 34 35 31 38 44 49 45 34 32 34 31 31 33 30 31 30 25 26 27 22 22 17 28 22 14 22 23 31 32 33 31
25 27 27 27 28 56 40 47 39 33 37 39 32 38 29 38 40 40 43 40 39 41 38 35 35 29 29 30 28 28 24 25 27 20 24 27 27 24 17 20 27 32 37
Wind_Direction_500mb
147 130 130 125 115 111 106 99 93 91 95 101 107 111 107 97 81 75 75 71 69 68 66 63 60 57 52 46 40 35 31 29 31 42 46 28 26 30 30 75 51 67 11
155 131 128 124 119 114 106 100 95 91 97 112 127 138 135 129 107 98 86 75 68 62 59 55 53 52 50 44 37 29 27 32 44 69 67 1 15 21 13 20 15 25 309
160 135 131 124 114 109 107 108 115 126 137 153 166 179 179 176 150 123 97 68 58 53 46 45 43 39 36 33 30 29 31 50 71 59 40 9 211 37 20 351 14 33 30
164 140 135 130 124 122 120 124 135 158 185 203 214 220 222 228 236 245 249 278 336 16 15 18 21 18 17 16 18 21 32 61 73 51 40 49 131 323 338 336 325 37 53
158 147 141 149 148 149 156 162 178 208 228 235 237 242 244 245 248 251 254 261 273 300 319 335 345 353 357 2 7 10 16 31 22 16 42 333 326 335 319 309 277 329 16
150 173 161 172 178 181 187 200 215 229 240 246 252 254 253 252 252 252 256 265 278 286 296 309 319 325 334 346 355 0 5 18 27 48 40 329 296 335 312 287 231 277 293
152 193 213 195 213 233 239 240 245 245 249 254 253 252 258 260 260 263 265 267 273 276 279 289 299 305 316 327 339 350 356 7 27 48 342 317 319 323 315 274 268 289 275
122 144 30 292 278 294 284 271 274 273 274 272 268 265 262 270 276 269 272 272 270 273 274 274 278 284 298 311 320 338 346 5 54 65 327 315 331 334 316 305 280 269 273
128 216 326 11 330 339 307 286 304 295 285 278 281 282 274 277 284 278 260 264 267 274 272 270 274 277 285 297 307 325 333 12 65 59 311 323 323 329 320 296 301 289 265
125 125 182 306 303 331 297 306 308 303 302 279 279 286 287 278 289 277 270 262 263 255 265 265 264 270 274 282 298 317 336 87 26 289 303 290 306 339 347 323 292 283 283
117 96 70 43 14 346 326 330 319 291 307 277 285 276 281 278 310 303 312 288 257 266 259 264 262 261 267 274 286 267 18 169 352 292 287 289 300 335 353 348 329 296 273
294 32 31 37 20 355 352 359 347 328 315 295 282 277 271 262 277 271 293 292 290 270 325 248 267 259 253 267 261 230 244 252 266 277 271 274 287 305 327 335 329 318 292
21 46 27 0 36 31 7 8 310 327 320 323 324 309 253 295 311 282 279 284 293 295 255 217 284 293 260 244 226 243 247 264 258 264 260 273 291 294 304 315 323 316 303
60 49 44 30 39 20 30 354 3 339 330 348 336 343 304 310 304 290 267 263 248 296 256 282 315 235 204 194 243 243 238 249 254 256 265 284 288 296 299 309 313 313 300
46 41 42 27 24 12 18 11 356 352 335 327 330 329 258 311 306 298 291 278 242 269 285 289 291 245 231 207 280 232 256 260 252 242 258 276 285 287 304 311 314 302 310
31 35 34 24 18 25 3 359 341 328 323 343 328 302 350 319 327 316 314 295 304 267 279 306 262 335 285 290 265 250 242 248 249 249 267 262 282 293 303 297 298 304 305
35 35 46 25 1 358 356 11 352 346 348 330 315 324 345 350 344 334 338 323 293 278 278 289 283 268 275 274 264 267 264 268 275 303 293 259 259 277 299 288 299 303 298
37 34 29 16 7 15 0 358 349 348 6 359 2 5 326 328 328 341 341 336 319 305 299 303 312 298 271 274 264 277 296 288 285 272 242 269 261 272 269 293 299 299 295
36 35 15 359 17 25 1 343 330 335 340 348 346 345 344 337 328 329 354 356 342 339 331 324 323 299 285 287 292 294 300 305 299 286 288 261 261 279 285 278 275 283 290
29 24 19 2 10 20 8 350 344 3 354 348 345 346 342 341 339 331 326 332 341 330 343 334 330 326 329 328 317 293 288 296 298 286 252 264 273 270 280 278 267 261 264
34 25 17 16 12 31 19 3 13 13 359 6 343 345 348 343 346 332 329 338 333 326 338 333 328 323 309 314 330 311 306 299 299 287 267 257 275 268 269 280 286 284 270
38 23 18 24 15 13 27 1 14 10 360 357 0 353 1 359 4 3 359 351 353 1 345 342 331 328 324 298 339 326 314 289 297 354 282 250 258 266 281 275 282 276 283
29 25 26 19 19 7 8 0 7 11 11 5 5 355 14 357 1 354 352 352 359 351 344 340 332 329 329 330 324 313 324 299 319 313 309 305 297 289 278 278 282 278 275
33 17 23 14 14 12 5 5 9 20 14 5 14 9 11 0 7 7 351 350 347 353 345 341 340 336 333 324 312 305 282 283 294 309 295 312 293 290 289 296 296 284 276
31 21 14 13 17 13 6 4 10 29 19 4 14 3 12 8 1 352 352 355 351 352 346 339 339 333 327 326 319 315 310 294 285 288 296 296 297 288 283 288 291 285 282
26 20 10 8 1 5 11 7 10 19 13 5 360 3 358 350 353 347 355 1 356 352 348 339 336 319 318 314 319 316 312 311 299 295 292 295 293 285 302 281 277 276 276
Wind_Speed_850mb
13 19 19 17 16 16 14 13 13 13 13 12 11 12 11 10 10 11 13 16 19 23 26 28 30 32 33 34 33 31 27 24 18 16 14 16 21 20 21 13 12 5 9
17 18 19 16 15 15 14 13 12 11 9 9 8 9 9 7 6 6 8 11 15 18 20 23 25 27 31 34 38 40 36 27 21 21 15 12 14 18 17 14 11 5 4
13 20 18 14 13 13 13 12 11 8 7 7 7 8 7 4 2 2 3 5 8 11 13 16 20 23 27 32 35 38 37 28 24 19 17 13 6 10 13 13 10 10 5
11 19 18 13 11 10 10 9 7 5 5 6 8 10 11 9 8 6 5 3 3 4 8 11 14 18 22 27 32 35 34 20 24 24 32 24 8 7 11 12 7 6 7
18 18 19 13 10 10 9 9 8 6 7 10 12 14 15 15 14 12 11 11 9 8 10 13 15 16 19 24 31 36 35 17 16 18 21 11 5 15 15 9 6 4 6
26 28 12 12 11 10 9 8 8 9 11 13 13 16 19 21 21 19 18 17 15 15 14 15 17 18 19 22 27 33 33 29 15 43 5 7 10 21 19 9 6 6 7
26 15 6 11 9 9 10 11 13 14 16 16 17 19 21 24 25 22 22 23 23 23 22 21 21 21 21 22 23 28 29 27 18 19 17 11 13 19 13 10 12 12 11
16 11 5 6 6 12 17 18 18 20 19 20 22 25 24 24 24 26 28 28 29 32 30 28 26 23 21 23 24 26 27 27 13 14 14 8 14 24 20 13 10 13 13
15 7 10 9 16 18 18 20 17 27 26 26 23 26 28 23 24 23 28 29 31 40 41 38 35 31 25 24 25 27 25 15 11 11 10 17 23 27 19 19 18 15 13
8 14 4 5 13 18 18 16 21 33 35 28 21 26 28 22 23 30 28 34 30 35 42 44 40 38 32 27 27 21 18 3 12 10 14 22 23 25 22 19 20 21 19
6 21 17 17 16 24 22 20 28 16 23 17 23 31 29 29 25 27 26 46 32 36 40 48 44 37 35 34 35 10 6 5 9 16 19 26 27 23 27 26 23 24 27
13 38 24 13 13 13 25 27 26 28 38 39 37 38 44 28 31 40 29 29 36 41 31 41 37 36 37 35 26 18 11 9 17 15 24 24 26 30 31 28 27 24 25
13 27 20 20 16 15 14 17 20 32 35 31 24 29 17 22 36 39 26 20 39 26 30 30 30 37 27 25 22 22 24 29 17 19 29 26 30 34 36 30 29 27 27
25 26 24 20 26 32 26 17 17 24 34 32 26 17 20 32 41 37 28 35 20 36 34 31 14 17 20 16 15 36 44 34 29 25 27 32 35 38 41 40 34 30 28
35 34 33 33 31 27 30 25 21 22 32 40 47 42 28 30 40 38 36 31 34 24 41 38 22 24 33 42 38 33 43 30 38 35 33 32 35 35 45 44 41 28 30
36 34 35 29 33 29 25 26 26 29 27 33 32 31 29 45 35 34 30 32 29 27 37 29 36 15 23 27 20 40 47 37 39 32 26 33 36 39 44 44 38 47 53
32 32 27 28 27 32 35 37 37 40 30 42 47 42 35 37 41 38 30 24 30 38 43 42 42 39 42 46 42 51 50 38 51 56 63 42 48 38 41 35 43 44 48
37 43 40 30 30 30 36 33 36 43 47 21 23 14 25 26 29 30 36 31 23 30 39 40 27 39 49 40 49 39 64 63 61 52 33 39 39 37 39 43 50 57 49
31 26 28 29 34 27 37 27 30 36 43 38 34 39 46 37 40 39 35 36 35 33 32 36 31 33 42 41 39 33 28 30 31 35 35 31 41 45 44 52 43 35 33
30 34 35 44 45 25 37 27 24 35 46 47 39 45 43 43 47 46 33 30 32 30 38 43 37 30 29 32 40 32 27 35 36 37 33 39 39 24 27 35 38 28 28
31 34 40 39 51 37 48 40 37 39 38 46 44 46 45 48 44 39 43 38 42 36 33 34 28 24 28 24 32 24 24 25 30 39 34 37 31 30 35 34 44 40 46
26 32 41 45 50 51 42 42 33 33 30 27 36 47 50 48 48 38 36 38 43 29 30 33 37 39 28 24 29 29 20 27 21 10 8 17 25 29 40 39 35 41 44
28 35 38 41 44 51 54 49 46 35 34 40 37 44 37 35 33 39 45 42 35 29 30 39 35 30 33 26 19 18 12 8 31 16 23 25 28 30 35 35 41 39 39
29 32 33 37 43 46 56 56 49 40 41 40 36 37 40 34 27 32 43 42 36 34 37 35 27 28 28 25 21 16 23 28 17 25 23 19 31 26 27 32 32 30 36
26 30 30 33 33 41 48 53 52 41 37 36 34 35 31 38 44 49 45 34 32 34 31 31 33 30 31 30 25 26 27 22 22 17 28 22 14 22 23 31 32 33 31
25 27 27 27 28 56 40 47 39 33 37 39 32 38 29 38 40 40 43 40 39 41 38 35 35 29 29 30 28 28 24 25 27 20 24 27 27 24 17 20 27 32 37
Wind_Direction_850mb
147 130 130 125 115 111 106 99 93 91 95 101 107 111 107 97 81 75 75 71 69 68 66 63 60 57 52 46 40 35 31 29 31 42 46 28 26 30 30 75 51 67 11
155 131 128 124 119 114 106 100 95 91 97 112 127 138 135 129 107 98 86 75 68 62 59 55 53 52 50 44 37 29 27 32 44 69 67 1 15 21 13 20 15 25 309
160 135 131 124 114 109 107 108 115 126 137 153 166 179 179 176 150 123 97 68 58 53 46 45 43 39 36 33 30 29 31 50 71 59 40 9 211 37 20 351 14 33 30
164 140 135 130 124 122 120 124 135 158 185 203 214 220 222 228 236 245 249 278 336 16 15 18 21 18 17 16 18 21 32 61 73 51 40 49 131 323 338 336 325 37 53
158 147 141 149 148 149 156 162 178 208 228 235 237 242 244 245 248 251 254 261 273 300 319 335 345 353 357 2 7 10 16 31 22 16 42 333 326 335 319 309 277 329 16
150 173 161 172 178 181 187 200 215 229 240 246 252 254 253 252 252 252 256 265 278 286 296 309 319 325 334 346 355 0 5 18 27 48 40 329 296 335 312 287 231 277 293
152 193 213 195 213 233 239 240 245 245 249 254 253 252 258 260 260 263 265 267 273 276 279 289 299 305 316 327 339 350 356 7 27 48 342 317 319 323 315 274 268 289 275
122 144 30 292 278 294 284 271 274 273 274 272 268 265 262 270 276 269 272 272 270 273 274 274 278 284 298 311 320 338 346 5 54 65 327 315 331 334 316 305 280 269 273
128 216 326 11 330 339 307 286 304 295 285 278 281 282 274 277 284 278 260 264 267 274 272 270 274 277 285 297 307 325 333 12 65 59 311 323 323 329 320 296 301 289 265
125 125 182 306 303 331 297 306 308 303 302 279 279 286 287 278 289 277 270 262 263 255 265 265 264 270 274 282 298 317 336 87 26 289 303 290 306 339 347 323 292 283 283
117 96 70 43 14 346 326 330 319 291 307 277 285 276 281 278 310 303 312 288 257 266 259 264 262 261 267 274 286 267 18 169 352 292 287 289 300 335 353 348 329 296 273
294 32 31 37 20 355 352 359 347 328 315 295 282 277 271 262 277 271 293 292 290 270 325 248 267 259 253 267 261 230 244 252 266 277 271 274 287 305 327 335 329 318 292
21 46 27 0 36 31 7 8 310 327 320 323 324 309 253 295 311 282 279 284 293 295 255 217 284 293 260 244 226 243 247 264 258 264 260 273 291 294 304 315 323 316 303
60 49 44 30 39 20 30 354 3 339 330 348 336 343 304 310 304 290 267 263 248 296 256 282 315 235 204 194 243 243 238 249 254 256 265 284 288 296 299 309 313 313 300
46 41 42 27 24 12 18 11 356 352 335 327 330 329 258 311 306 298 291 278 242 269 285 289 291 245 231 207 280 232 256 260 252 242 258 276 285 287 304 311 314 302 310
31 35 34 24 18 25 3 359 341 328 323 343 328 302 350 319 327 316 314 295 304 267 279 306 262 335 285 290 265 250 242 248 249 249 267 262 282 293 303 297 298 304 305
35 35 46 25 1 358 356 11 352 346 348 330 315 324 345 350 344 334 338 323 293 278 278 289 283 268 275 274 264 267 264 268 275 303 293 259 259 277 299 288 299 303 298
37 34 29 16 7 15 0 358 349 348 6 359 2 5 326 328 328 341 341 336 319 305 299 303 312 298 271 274 264 277 296 288 285 272 242 269 261 272 269 293 299 299 295
36 35 15 359 17 25 1 343 330 335 340 348 346 345 344 337 328 329 354 356 342 339 331 324 323 299 285 287 292 294 300 305 299 286 288 261 261 279 285 278 275 283 290
29 24 19 2 10 20 8 350 344 3 354 348 345 346 342 341 339 331 326 332 341 330 343 334 330 326 329 328 317 293 288 296 298 286 252 264 273 270 280 278 267 261 264
34 25 17 16 12 31 19 3 13 13 359 6 343 345 348 343 346 332 329 338 333 326 338 333 328 323 309 314 330 311 306 299 299 287 267 257 275 268 269 280 286 284 270
38 23 18 24 15 13 27 1 14 10 360 357 0 353 1 359 4 3 359 351 353 1 345 342 331 328 324 298 339 326 314 289 297 354 282 250 258 266 281 275 282 276 283
29 25 26 19 19 7 8 0 7 11 11 5 5 355 14 357 1 354 352 352 359 351 344 340 332 329 329 330 324 313 324 299 319 313 309 305 297 289 278 278 282 278 275
33 17 23 14 14 12 5 5 9 20 14 5 14 9 11 0 7 7 351 350 347 353 345 341 340 336 333 324 312 305 282 283 294 309 295 312 293 290 289 296 296 284 276
31 21 14 13 17 13 6 4 10 29 19 4 14 3 12 8 1 352 352 355 351 352 346 339 339 333 327 326 319 315 310 294 285 288 296 296 297 288 283 288 291 285 282
26 20 10 8 1 5 11 7 10 19 13 5 360 3 358 350 353 347 355 1 356 352 348 339 336 319 318 314 319 316 312 311 299 295 292 295 293 285 302 281 277 276 276